[TLELIST] Archives

 

[list_settings.list_name] Current TLEs

April 2nd 2022 PST

HST 1 20580U 90037B 22091.89989029 .00003730 00000-0 21167-3 0 9995 2 20580 28.4706 315.9300 0002402 292.9960 85.3078 15.10205430554635 ISS (ZARYA) 1 25544U 98067A 22092.17989097 .00019620 00000-0 35347-3 0 9998 2 25544 51.6448 353.0512 0004600 338.3217 118.2786 15.49785171333398 CXO 1 25867U 99040B 22094.00360342 .00000767 00000-0 00000+0 0 9994 2 25867 47.4681 240.3393 8734918 231.3244 0.2666 0.37806365 22678 ____________________________________________________________________ These 2-Line ...Continue Reading

[list_settings.list_name] Current TLEs

April 1st 2022 PST

HST 1 20580U 90037B 22090.07405490 .00003561 00000-0 20167-3 0 9990 2 20580 28.4709 328.0210 0002393 271.3878 240.6800 15.10193567554356 ISS (ZARYA) 1 25544U 98067A 22091.48403859 .00017829 00000-0 32237-3 0 9992 2 25544 51.6452 356.4970 0004401 335.6474 196.1056 15.49755166333286 CXO 1 25867U 99040B 22091.35952416 .00000773 00000-0 00000+0 0 9995 2 25867 47.5352 240.4945 8729048 231.2440 0.3420 0.37806403 22664 ____________________________________________________________________ These 2-Line ...Continue Reading

[list_settings.list_name] Current TLEs

March 31st 2022 PST

HST 1 20580U 90037B 22090.07405490 .00003561 00000-0 20167-3 0 9990 2 20580 28.4709 328.0210 0002393 271.3878 240.6800 15.10193567554626 ISS (ZARYA) 1 25544U 98067A 22090.24726279 .00027269 00000-0 48885-3 0 9994 2 25544 51.6448 2.6217 0004226 330.7349 136.4493 15.49718271333094 CXO 1 25867U 99040B 22091.35952416 .00000773 00000-0 00000+0 0 9995 2 25867 47.5352 240.4945 8729048 231.2440 0.3420 0.37806403 22664 ____________________________________________________________________ These 2-Line ...Continue Reading

[list_settings.list_name] Current TLEs

March 30th 2022 PST

HST 1 20580U 90037B 22088.86604823 .00002855 00000-0 15959-3 0 9993 2 20580 28.4712 336.0206 0002403 257.1879 154.3105 15.10185135554170 ISS (ZARYA) 1 25544U 98067A 22089.28690779 .00012683 00000-0 23262-3 0 9997 2 25544 51.6456 7.3749 0004071 329.2000 176.7279 15.49653967332942 CXO 1 25867U 99040B 22091.35952416 .00000773 00000-0 00000+0 0 9995 2 25867 47.5352 240.4945 8729048 231.2440 0.3420 0.37806403 22664 ____________________________________________________________________ These 2-Line ...Continue Reading

[list_settings.list_name] Current TLEs

March 29th 2022 PST

HST 1 20580U 90037B 22087.87394997 .00002405 00000-0 13272-3 0 9998 2 20580 28.4714 342.5901 0002415 245.5579 161.5464 15.10179220554027 ISS (ZARYA) 1 25544U 98067A 22088.25530176 .00013731 00000-0 25135-3 0 9993 2 25544 51.6461 12.4842 0004094 326.2281 180.8737 15.49628788332782 CXO 1 25867U 99040B 22088.71518841 .00000879 00000-0 00000-0 0 9999 2 25867 47.5784 240.6185 8723262 231.1962 0.3337 0.37809904 11508 ____________________________________________________________________ These 2-Line ...Continue Reading

[list_settings.list_name] Current TLEs

March 28th 2022 PST

HST 1 20580U 90037B 22086.81768980 .00002190 00000-0 11990-3 0 9994 2 20580 28.4710 349.5842 0002489 234.1344 179.0820 15.10174843553866 ISS (ZARYA) 1 25544U 98067A 22087.02223517 .00008468 00000-0 15842-3 0 9990 2 25544 51.6446 18.5860 0004032 319.2109 144.5627 15.49589185332596 CXO 1 25867U 99040B 22088.71518841 .00000879 00000-0 00000-0 0 9999 2 25867 47.5784 240.6185 8723262 231.1962 0.3337 0.37809904 11508 ____________________________________________________________________ These 2-Line ...Continue Reading

[list_settings.list_name] Current TLEs

March 27th 2022 PST

HST 1 20580U 90037B 22086.17534698 .00001989 00000-0 10790-3 0 9992 2 20580 28.4711 353.8377 0002506 227.0093 287.1044 15.10171373554034 ISS (ZARYA) 1 25544U 98067A 22086.31915465 .00007574 00000-0 14264-3 0 9995 2 25544 51.6447 22.0660 0003975 316.5827 182.4652 15.49574480332486 CXO 1 25867U 99040B 22088.71476552 .00000879 00000-0 00000+0 0 9990 2 25867 47.5783 240.6184 8723275 231.1963 0.2757 0.37808786 22651 ____________________________________________________________________ These 2-Line ...Continue Reading

[list_settings.list_name] Current TLEs

March 26th 2022 PST

HST 1 20580U 90037B 22085.09440748 .00002077 00000-0 11317-3 0 9999 2 20580 28.4712 0.9954 0002542 215.1350 170.6782 15.10168061553865 ISS (ZARYA) 1 25544U 98067A 22085.22492975 .00007577 00000-0 14277-3 0 9997 2 25544 51.6448 27.4831 0003987 313.2897 197.6636 15.49556948332311 CXO 1 25867U 99040B 22086.07218771 .00000953 00000-0 00000-0 0 9998 2 25867 47.6302 240.7609 8719356 231.1397 0.4703 0.37812706 11498 ____________________________________________________________________ These 2-Line ...Continue Reading

[list_settings.list_name] Current TLEs

March 25th 2022 PST

HST 1 20580U 90037B 22083.53339881 .00001892 00000-0 10215-3 0 9991 2 20580 28.4712 11.3316 0002592 197.9531 324.4615 15.10161846553369 ISS (ZARYA) 1 25544U 98067A 22084.12316441 .00006730 00000-0 12782-3 0 9997 2 25544 51.6446 32.9367 0004076 310.4490 170.3824 15.49536326332148 CXO 1 25867U 99040B 22086.07218771 .00000953 00000-0 00000-0 0 9998 2 25867 47.6302 240.7609 8719356 231.1397 0.4703 0.37812706 11498 ____________________________________________________________________ These 2-Line ...Continue Reading

[list_settings.list_name] Current TLEs

March 24th 2022 PST

HST 1 20580U 90037B 22083.19354094 .00001863 00000-0 10042-3 0 9992 2 20580 28.4712 13.5820 0002605 194.2110 276.8733 15.10160505553576 ISS (ZARYA) 1 25544U 98067A 22083.35224310 .00006091 00000-0 11651-3 0 9998 2 25544 51.6447 36.7529 0003935 307.7750 189.7706 15.49522434332027 CXO 1 25867U 99040B 22083.42896185 .00000953 00000-0 00000+0 0 9994 2 25867 47.7106 240.9308 8715242 231.0696 0.5734 0.37808387 22633 ____________________________________________________________________ These 2-Line ...Continue Reading
  • This mailing list is a public mailing list - anyone may join or leave, at any time.
  • This mailing list is announce-only.

International Space Station (ISS) / Hubble Space Telescope (HST) / Chandra X-Ray Observatory Orbital Data via EMAIL

Privacy Policy:

Private list